Sedalia, MO

10:58 PM CDT on May 22, 2017 (GMT -0500)
Sedalia Memorial

Weather History for KDMO - December, 2012

Change the Weather History Date:

Friday, December 7, 2012

  Actual Average Record
Temperature  
Mean Temperature 48 °F 37 °F  
Max Temperature 51 °F 46 °F 72 °F (1966)
Min Temperature 45 °F 29 °F 0 °F (1950)
Degree Days  
Heating Degree Days 17 28  
Month to date heating degree days 78 186  
Since 1 July heating degree days 955 1031  
Cooling Degree Days 0 0  
Month to date cooling degree days 0 0  
Year to date cooling degree days 2111 1490  
Moisture  
Dew Point 43 °F    
Average Humidity 82    
Maximum Humidity 86    
Minimum Humidity 77    
Precipitation  
Precipitation T in 0.08 in 0.68 in (1969)
Month to date precipitation 0.09 0.53  
Year to date precipitation 29.51 39.32  
Sea Level Pressure  
Sea Level Pressure 29.89 in    
Wind  
Wind Speed 5 mph (North)    
Max Wind Speed 10 mph    
Max Gust Speed 18 mph    
Visibility 7 miles    
Events Rain    
T = Trace of Precipitation, MM = Missing Value Source: NWS Daily Summary

Daily Weather History Graph

Daily Weather History Graph

Search for Another Location

Airport or City:

Trip Planner

Search our weather history database for the weather conditions in past years. The results will help you decide how hot, cold, wet, or windy it might be!

Date:

Astronomy

Dec. 07, 2012 Rise Set
Actual Time 7:17 AM CST 4:51 PM CST
Civil Twilight 6:48 AM CST 5:20 PM CST
Nautical Twilight 6:14 AM CST 5:53 PM CST
Astronomical Twilight 5:42 AM CST 6:26 PM CST
Moon 12:41 AM CST (12/7) 12:45 PM CST (12/7)
Length of Visible Light 10h 32m
Length of Day
9h 33m
Last Quarter, 38% of the Moon is Illuminated
Dec 7
Last Quarter
Dec 13
New
Dec 19
First Quarter
Dec 28
Full
Jan 4
Last Quarter

Hourly Weather History & Observations

Time (CST) Temp. Windchill Dew Point Humidity Pressure Visibility Wind Dir Wind Speed Gust Speed Precip Events Conditions
12:53 AM 48.9 °F - 42.1 °F 77% 29.88 in 10.0 mi East 4.6 mph - N/A   Overcast
1:53 AM 48.0 °F - 42.1 °F 80% 29.87 in 10.0 mi East 3.5 mph - N/A   Overcast
2:53 AM 48.0 °F - 42.1 °F 80% 29.88 in 10.0 mi NNW 5.8 mph - N/A   Overcast
3:53 AM 48.0 °F - 42.1 °F 80% 29.88 in 10.0 mi North 4.6 mph - N/A   Overcast
4:53 AM 46.9 °F - 43.0 °F 86% 29.87 in 10.0 mi North 5.8 mph - 0.00 in Rain Light Rain
5:53 AM 46.9 °F - 43.0 °F 86% 29.88 in 10.0 mi North 6.9 mph - 0.00 in   Overcast
6:53 AM 46.9 °F - 43.0 °F 86% 29.89 in 9.0 mi North 4.6 mph - N/A   Overcast
7:09 AM 46.4 °F 44.3 °F 42.8 °F 87% 29.89 in 9.0 mi North 4.6 mph - N/A   Overcast
7:23 AM 46.4 °F 44.3 °F 42.8 °F 87% 29.89 in 8.0 mi North 4.6 mph - N/A   Overcast
7:53 AM 46.9 °F - 43.0 °F 86% 29.90 in 7.0 mi North 6.9 mph - N/A   Overcast
8:53 AM 46.9 °F - 43.0 °F 86% 29.91 in 7.0 mi Variable 3.5 mph - N/A   Overcast
9:53 AM 48.0 °F - 43.0 °F 83% 29.92 in 6.0 mi NE 4.6 mph - N/A   Haze
10:53 AM 48.9 °F - 43.0 °F 80% 29.90 in 6.0 mi North 4.6 mph - N/A   Haze
11:53 AM 50.0 °F - 44.1 °F 80% 29.88 in 7.0 mi Variable 3.5 mph - N/A   Overcast
12:08 PM 50.0 °F - 44.6 °F 82% 29.87 in 7.0 mi Calm Calm - N/A   Overcast
12:53 PM 50.0 °F - 44.1 °F 80% 29.87 in 6.0 mi Calm Calm - N/A   Haze
1:53 PM 51.1 °F - 44.1 °F 77% 29.85 in 6.0 mi Calm Calm - N/A   Haze
2:53 PM 51.1 °F - 44.1 °F 77% 29.85 in 6.0 mi Calm Calm - N/A   Haze
3:53 PM 51.1 °F - 44.1 °F 77% 29.86 in 5.0 mi Calm Calm - N/A   Haze
4:53 PM 51.1 °F - 44.1 °F 77% 29.88 in 7.0 mi North 3.5 mph - N/A   Overcast
5:53 PM 50.0 °F - 44.1 °F 80% 29.88 in 7.0 mi NNE 4.6 mph - N/A   Overcast
8:27 PM 46.4 °F 43.5 °F 42.8 °F 87% 29.90 in 5.0 mi North 5.8 mph - N/A   Overcast
8:53 PM 46.9 °F - 43.0 °F 86% 29.92 in 4.0 mi North 5.8 mph - N/A   Overcast
9:34 PM 46.4 °F 42.9 °F 42.8 °F 87% 29.91 in 5.0 mi North 6.9 mph - N/A   Overcast
9:53 PM 46.0 °F 41.9 °F 43.0 °F 89% 29.92 in 5.0 mi North 8.1 mph - N/A   Overcast
10:01 PM 46.4 °F 43.5 °F 42.8 °F 87% 29.91 in 5.0 mi North 5.8 mph - N/A   Overcast
10:14 PM 46.4 °F 43.5 °F 42.8 °F 87% 29.91 in 5.0 mi North 5.8 mph - N/A   Overcast
10:24 PM 46.4 °F 45.2 °F 42.8 °F 87% 29.91 in 5.0 mi North 3.5 mph - N/A   Overcast
10:53 PM 46.0 °F - 42.1 °F 86% 29.91 in 5.0 mi Calm Calm - N/A   Overcast
11:53 PM 45.0 °F - 42.1 °F 90% 29.91 in 5.0 mi Calm Calm - N/A   Overcast